When you browse on this site, cookies collect data to enhance your experience and personalize the content and advertising you see.
Visit our Privacy Policy to learn more. By continuing to use the site, you agree to this use of cookies and data.
  • In United Kingdom
  • List of Countries
  • For 7 days
  • Water Temperature
  • Weather Map
  • Weather Widgets
  • user-avatar
    Login

    Hourly Weather Bystrzyca Gorna

    Today, 23 February, Sunday

    Time Temperature Precipitation Wind Pressure Humidity
    00:00 +5°C° 0 mm 7 mps 735 mmHg 73%
    01:00 +6°C° 0 mm 5 mps 735 mmHg 77%
    02:00 +6°C° 0.1 mm 5 mps 734 mmHg 79%
    03:00 +5°C° 0.1 mm 6 mps 734 mmHg 81%
    04:00 +5°C° 0.1 mm 6 mps 734 mmHg 83%
    05:00 +5°C° 0.6 mm 6 mps 734 mmHg 86%
    06:00 +6°C° 0.6 mm 5 mps 734 mmHg 88%
    07:00 +5°C° 0.6 mm 4 mps 734 mmHg 90%
    08:00 +5°C° 1.1 mm 4 mps 733 mmHg 91%
    09:00 +5°C° 1.1 mm 3 mps 733 mmHg 92%
    10:00 +5°C° 1.1 mm 3 mps 733 mmHg 93%
    11:00 +5°C° 0.8 mm 3 mps 732 mmHg 93%
    12:00 +7°C° 0.8 mm 3 mps 731 mmHg 92%
    13:00 +7°C° 0.8 mm 3 mps 730 mmHg 92%
    14:00 +7°C° 1.5 mm 6 mps 728 mmHg 89%
    15:00 +7°C° 1.5 mm 8 mps 726 mmHg 85%
    16:00 +8°C° 1.5 mm 11 mps 724 mmHg 82%
    17:00 +8°C° 1.2 mm 11 mps 724 mmHg 82%
    18:00 +9°C° 1.2 mm 11 mps 723 mmHg 82%
    19:00 +9°C° 1.2 mm 11 mps 723 mmHg 82%
    20:00 +8°C° 1.1 mm 11 mps 724 mmHg 78%
    21:00 +6°C° 1.1 mm 11 mps 725 mmHg 75%
    22:00 +4°C° 1.1 mm 11 mps 725 mmHg 71%
    23:00 +3°C° 0.5 mm 12 mps 727 mmHg 74%

    Tomorrow, 24 February, Monday

    Time Temperature Precipitation Wind Pressure Humidity
    00:00 +2°C° 0.5 mm 12 mps 729 mmHg 76%
    01:00 -1°C° 0.5 mm 12 mps 730 mmHg 79%
    02:00 -1°C° 0.1 mm 11 mps 731 mmHg 80%
    03:00 -2°C° 0.1 mm 10 mps 732 mmHg 81%
    04:00 -1°C° 0.1 mm 9 mps 734 mmHg 82%
    05:00 -1°C° 0 mm 8 mps 734 mmHg 81%
    06:00 -1°C° 0 mm 8 mps 735 mmHg 80%
    07:00 -1°C° 0 mm 7 mps 736 mmHg 79%
    08:00 -1°C° 0 mm 7 mps 736 mmHg 77%
    09:00 0°C° 0 mm 7 mps 736 mmHg 75%
    10:00 +1°C° 0 mm 6 mps 736 mmHg 74%
    11:00 +2°C° 0 mm 6 mps 736 mmHg 72%
    12:00 +2°C° 0 mm 6 mps 736 mmHg 70%
    13:00 +3°C° 0 mm 5 mps 736 mmHg 68%
    14:00 +3°C° 0 mm 5 mps 735 mmHg 68%
    15:00 +4°C° 0 mm 4 mps 735 mmHg 68%
    16:00 +4°C° 0 mm 4 mps 734 mmHg 68%
    17:00 +3°C° 0 mm 4 mps 733 mmHg 69%
    18:00 +3°C° 0 mm 4 mps 733 mmHg 70%
    19:00 +2°C° 0 mm 5 mps 732 mmHg 71%
    20:00 +2°C° 0.1 mm 5 mps 731 mmHg 70%
    21:00 +3°C° 0.1 mm 6 mps 730 mmHg 69%
    22:00 +3°C° 0.1 mm 7 mps 729 mmHg 68%
    23:00 +3°C° 0 mm 7 mps 728 mmHg 73%

    Day after tomorrow, 25 February, Tuesday

    Time Temperature Precipitation Wind Pressure Humidity
    00:00 +4°C° 0 mm 7 mps 727 mmHg 78%
    01:00 +5°C° 0 mm 8 mps 726 mmHg 82%
    02:00 +5°C° 0.3 mm 8 mps 725 mmHg 82%
    03:00 +6°C° 0.3 mm 8 mps 724 mmHg 83%
    04:00 +6°C° 0.3 mm 8 mps 724 mmHg 83%
    05:00 +6°C° 0.2 mm 8 mps 724 mmHg 82%
    06:00 +6°C° 0.2 mm 7 mps 724 mmHg 82%
    07:00 +7°C° 0.2 mm 6 mps 724 mmHg 82%
    08:00 +7°C° 0 mm 6 mps 724 mmHg 79%
    09:00 +8°C° 0 mm 6 mps 724 mmHg 77%
    10:00 +8°C° 0 mm 7 mps 723 mmHg 74%
    11:00 +9°C° 0.1 mm 7 mps 723 mmHg 72%
    12:00 +9°C° 0.1 mm 7 mps 723 mmHg 70%
    13:00 +9°C° 0.1 mm 7 mps 723 mmHg 68%
    14:00 +8°C° 0.1 mm 7 mps 722 mmHg 68%
    15:00 +8°C° 0.1 mm 7 mps 722 mmHg 67%
    16:00 +8°C° 0.1 mm 7 mps 722 mmHg 66%
    17:00 +5°C° 0 mm 6 mps 722 mmHg 67%
    18:00 +5°C° 0 mm 5 mps 722 mmHg 69%
    19:00 +4°C° 0 mm 3 mps 722 mmHg 70%
    20:00 +3°C° 0 mm 4 mps 722 mmHg 70%
    21:00 +3°C° 0 mm 4 mps 722 mmHg 70%
    22:00 +1°C° 0 mm 4 mps 722 mmHg 70%
    23:00 +1°C° 0 mm 4 mps 722 mmHg 72%

    26 February, Wednesday

    Time Temperature Precipitation Wind Pressure Humidity
    00:00 +1°C° 0 mm 4 mps 722 mmHg 74%
    01:00 0°C° 0 mm 4 mps 722 mmHg 76%
    02:00 0°C° 0 mm 4 mps 721 mmHg 79%
    03:00 0°C° 0 mm 4 mps 721 mmHg 82%
    04:00 0°C° 0 mm 4 mps 720 mmHg 85%
    05:00 0°C° 0 mm 5 mps 720 mmHg 86%
    06:00 0°C° 0 mm 5 mps 719 mmHg 86%
    07:00 0°C° 0 mm 5 mps 719 mmHg 86%
    08:00 +1°C° 0 mm 5 mps 718 mmHg 81%
    09:00 +2°C° 0 mm 6 mps 718 mmHg 76%
    10:00 +3°C° 0 mm 6 mps 718 mmHg 71%
    11:00 +3°C° 0 mm 6 mps 718 mmHg 69%
    12:00 +3°C° 0 mm 6 mps 718 mmHg 67%
    13:00 +4°C° 0 mm 6 mps 718 mmHg 66%
    14:00 +3°C° 0.2 mm 5 mps 718 mmHg 63%
    15:00 +3°C° 0.2 mm 5 mps 718 mmHg 61%
    16:00 +3°C° 0.2 mm 5 mps 718 mmHg 59%
    17:00 +2°C° 0 mm 5 mps 719 mmHg 61%
    18:00 +1°C° 0 mm 4 mps 720 mmHg 63%
    19:00 0°C° 0 mm 4 mps 720 mmHg 65%
    20:00 0°C° 0 mm 4 mps 721 mmHg 66%
    21:00 -1°C° 0 mm 4 mps 721 mmHg 67%
    22:00 -1°C° 0 mm 4 mps 722 mmHg 69%
    23:00 -1°C° 0 mm 5 mps 722 mmHg 75%

    27 February, Thursday

    Time Temperature Precipitation Wind Pressure Humidity
    00:00 -1°C° 0 mm 5 mps 723 mmHg 80%
    01:00 -1°C° 0 mm 5 mps 723 mmHg 86%
    02:00 -1°C° 0 mm 4 mps 723 mmHg 85%
    03:00 -2°C° 0 mm 4 mps 724 mmHg 84%
    04:00 -2°C° 0 mm 4 mps 724 mmHg 84%
    05:00 -2°C° 0.1 mm 4 mps 724 mmHg 84%
    06:00 -1°C° 0.1 mm 5 mps 725 mmHg 84%
    07:00 -1°C° 0.1 mm 5 mps 725 mmHg 84%
    08:00 -2°C° 0 mm 6 mps 726 mmHg 79%
    09:00 -1°C° 0 mm 6 mps 726 mmHg 74%
    10:00 0°C° 0 mm 7 mps 727 mmHg 69%
    11:00 +1°C° 0.2 mm 6 mps 727 mmHg 71%
    12:00 +1°C° 0.2 mm 6 mps 727 mmHg 72%
    13:00 +1°C° 0.2 mm 6 mps 727 mmHg 74%
    14:00 +1°C° 0.1 mm 6 mps 727 mmHg 72%
    15:00 +1°C° 0.1 mm 5 mps 727 mmHg 70%
    16:00 +1°C° 0.1 mm 5 mps 727 mmHg 68%
    17:00 0°C° 0 mm 4 mps 726 mmHg 72%
    18:00 +1°C° 0 mm 3 mps 726 mmHg 75%
    19:00 +1°C° 0 mm 2 mps 726 mmHg 79%
    20:00 0°C° 0 mm 3 mps 725 mmHg 76%
    21:00 0°C° 0 mm 3 mps 725 mmHg 73%
    22:00 -1°C° 0 mm 4 mps 724 mmHg 70%
    23:00 -1°C° 0.2 mm 5 mps 723 mmHg 74%

    28 February, Friday

    Time Temperature Precipitation Wind Pressure Humidity
    00:00 -2°C° 0.2 mm 7 mps 722 mmHg 78%
    01:00 -2°C° 0.2 mm 8 mps 721 mmHg 82%
    02:00 -2°C° 0.2 mm 8 mps 720 mmHg 83%
    03:00 -3°C° 0.2 mm 9 mps 719 mmHg 84%
    04:00 -1°C° 0.2 mm 9 mps 718 mmHg 85%
    05:00 0°C° 0.2 mm 9 mps 719 mmHg 85%
    06:00 +1°C° 0.2 mm 8 mps 719 mmHg 85%
    07:00 +3°C° 0.2 mm 7 mps 719 mmHg 86%
    08:00 +2°C° 0 mm 9 mps 720 mmHg 76%
    09:00 +2°C° 0 mm 10 mps 720 mmHg 67%
    10:00 +2°C° 0 mm 11 mps 721 mmHg 58%
    11:00 +2°C° 0 mm 11 mps 721 mmHg 58%
    12:00 +2°C° 0 mm 12 mps 722 mmHg 58%
    13:00 +2°C° 0 mm 12 mps 722 mmHg 58%
    14:00 +2°C° 0 mm 11 mps 723 mmHg 62%
    15:00 +1°C° 0 mm 10 mps 723 mmHg 66%
    16:00 +1°C° 0 mm 9 mps 724 mmHg 69%
    17:00 0°C° 0 mm 8 mps 725 mmHg 74%
    18:00 -1°C° 0 mm 6 mps 726 mmHg 79%
    19:00 0°C° 0 mm 4 mps 727 mmHg 83%
    20:00 0°C° 0 mm 3 mps 727 mmHg 85%
    21:00 +1°C° 0 mm 2 mps 727 mmHg 86%
    22:00 +1°C° 0 mm 1 mps 728 mmHg 88%
    23:00 +1°C° 0 mm 1 mps 727 mmHg 87%
    Show more